Temp
4 4 4 4 4 4 4 4 4 4 3 4 4 4 5 5 5 5 6 6 6 6 6 6 7 7 7 7 5 7 8 9 10 11 11 12 12 13 10 11 12 12 12 12 11 11 11
4 4 4 4 4 4 4 4 4 4 4 5 4 4 5 5 5 6 6 6 5 6 6 6 6 6 7 5 6 7 8 9 10 10 11 11 12 13 12 11 11 12 12 12 11 11 11
3 4 4 4 4 4 4 4 4 4 4 5 5 5 6 6 5 5 6 6 6 5 6 6 6 6 6 4 5 7 7 8 9 10 10 11 12 12 12 10 11 11 11 10 11 11 11
4 4 5 4 4 4 4 4 4 4 4 4 5 5 5 5 5 5 5 5 6 6 6 6 6 6 3 4 6 7 7 8 9 10 11 11 12 11 11 11 11 11 10 10 11 10 10
5 6 5 6 6 5 5 5 5 5 4 4 5 5 5 5 5 5 5 5 5 5 5 5 5 5 3 4 5 7 7 8 9 9 10 11 11 10 10 8 6 10 7 10 11 11 10
6 5 6 6 6 6 6 5 5 5 5 5 5 5 5 5 5 5 5 5 5 5 5 5 5 5 3 3 6 7 8 8 9 9 10 10 10 7 7 6 6 10 10 11 12 10 10
8 7 6 7 6 6 7 6 6 6 5 5 5 5 5 6 6 6 7 5 5 3 3 3 3 3 4 5 6 7 8 8 9 9 7 9 4 3 7 8 10 10 11 11 11 11 10
8 8 8 7 7 7 7 6 6 6 6 6 5 5 6 6 6 6 7 4 3 3 3 3 4 5 5 6 7 8 9 9 9 7 9 6 5 8 9 9 9 9 10 9 10 11 10
9 8 8 8 7 7 7 7 7 7 6 6 7 6 6 6 6 7 6 5 5 3 3 4 5 5 5 6 6 7 8 9 9 7 7 5 7 9 9 9 9 10 9 8 9 9 9
8 9 8 8 8 8 8 7 7 7 7 6 7 7 7 7 6 6 6 5 5 5 2 4 5 6 7 6 7 7 8 8 8 7 8 7 8 8 9 9 9 9 9 9 9 6 4
9 8 9 9 8 8 8 8 8 7 7 7 7 7 7 7 6 6 6 6 6 5 3 5 6 7 7 7 7 8 8 9 7 8 7 7 7 8 9 8 9 8 8 8 8 7 4
9 9 8 9 9 9 8 9 9 8 8 7 7 7 7 6 7 6 6 6 6 2 3 3 7 8 8 8 8 8 8 9 8 9 7 7 8 8 8 9 9 9 8 8 8 8 3
10 10 10 9 9 9 9 9 9 9 9 9 8 8 7 7 7 7 7 6 2 2 6 5 6 8 8 8 8 8 8 7 6 4 7 7 8 8 8 8 9 8 7 4 7 7 5
10 10 10 10 9 9 9 9 9 9 10 10 9 8 8 8 8 8 7 2 1 4 5 7 8 8 7 8 8 8 8 6 8 8 6 3 4 7 8 8 8 10 10 7 4 5 4
11 11 10 10 10 9 9 9 9 9 10 10 10 9 9 8 8 8 8 1 2 5 7 8 8 8 8 8 8 8 9 8 8 8 6 7 6 9 8 9 9 9 8 7 3 4 7
11 11 11 10 10 10 10 9 9 10 10 10 10 10 9 9 9 8 3 4 5 8 8 8 8 9 8 8 8 8 8 9 8 8 8 9 7 9 8 9 8 7 7 7 6 5 8
11 11 11 11 10 10 10 10 10 10 10 10 10 10 10 10 10 9 2 4 7 8 8 8 8 9 9 9 8 8 9 8 9 8 9 9 7 8 8 7 7 6 7 6 6 5 6
11 11 11 11 11 10 10 11 10 11 11 11 10 7 10 10 8 6 2 7 8 7 8 7 8 9 9 9 9 9 9 9 9 9 8 9 8 5 7 10 8 7 6 6 4 7 6
10 10 11 11 11 11 10 10 11 10 10 11 10 10 10 10 4 4 7 7 8 8 8 9 9 10 10 9 9 10 9 9 9 8 8 7 5 3 6 7 9 8 8 8 7 7 7
9 9 8 9 10 10 10 10 10 10 10 9 10 4 10 10 9 6 8 8 7 8 9 9 9 9 9 9 9 9 9 8 9 9 8 8 6 5 5 8 8 7 8 8 7 4 5
8 8 8 7 7 8 10 10 10 10 10 9 9 7 7 4 7 8 8 8 9 8 8 9 9 9 9 9 9 8 10 8 8 8 8 6 4 3 5 6 7 7 7 7 6 7 6
7 7 8 7 7 6 7 9 9 9 10 9 8 8 8 7 8 8 7 7 9 9 8 8 8 9 9 8 8 8 9 9 8 6 6 6 5 6 4 6 6 5 7 7 8 8 8
7 7 7 7 7 6 5 7 8 9 9 8 7 7 8 6 6 5 6 9 9 9 9 9 8 8 8 8 8 9 9 9 8 6 5 5 4 4 4 5 5 5 6 8 8 8 9
7 7 7 7 6 6 5 6 7 7 8 7 7 7 7 5 4 5 8 9 8 8 8 9 9 8 8 8 9 9 7 7 7 6 7 6 5 3 3 3 4 8 9 9 8 8 9
7 7 7 6 6 6 6 6 6 6 7 7 6 6 7 4 6 7 8 8 8 8 7 8 8 8 8 8 6 5 6 7 7 5 5 6 5 4 3 3 6 8 8 8 8 8 8
7 7 7 6 6 6 6 6 6 5 6 6 6 6 6 5 5 8 8 8 5 4 6 7 7 7 7 6 6 6 6 8 7 6 6 5 5 4 3 4 6 9 10 10 9 6 8
6 6 7 6 5 5 5 6 6 6 5 6 6 6 5 5 7 7 7 6 8 7 5 7 6 6 7 4 4 4 5 8 7 5 3 5 6 5 6 4 4 7 9 10 10 10 10
5 6 6 6 5 5 5 6 5 5 5 5 5 5 5 5 6 7 7 7 7 7 6 7 6 5 3 4 4 4 4 6 6 5 3 3 2 3 5 4 4 8 8 8 9 11 12
5 5 5 5 5 5 5 5 5 5 5 5 4 5 4 4 5 6 6 6 6 7 7 7 7 6 6 3 2 4 5 4 4 5 5 5 5 4 5 5 8 10 10 12 11 11 11
Height
1526 1522 1517 1513 1508 1503 1496 1490 1484 1478 1471 1466 1458 1450 1444 1443 1443 1445 1445 1445 1447 1450 1455 1460 1463 1468 1475 1482 1489 1493 1495 1497 1501 1502 1504 1506 1509 1512 1515 1516 1519 1521 1525 1526 1528 1529 1531
1528 1524 1520 1516 1511 1506 1499 1493 1487 1482 1476 1471 1466 1460 1456 1454 1453 1453 1452 1453 1455 1456 1461 1465 1468 1472 1479 1487 1493 1496 1498 1500 1502 1503 1505 1507 1511 1512 1514 1518 1520 1521 1523 1526 1528 1528 1528
1530 1526 1522 1519 1514 1509 1503 1497 1490 1486 1481 1476 1473 1469 1467 1463 1462 1461 1460 1461 1463 1465 1467 1470 1472 1478 1481 1495 1493 1498 1501 1502 1503 1504 1506 1509 1510 1512 1515 1519 1521 1522 1524 1525 1527 1528 1529
1531 1527 1523 1520 1516 1511 1506 1501 1495 1490 1486 1482 1480 1477 1475 1472 1470 1470 1469 1470 1471 1471 1472 1474 1479 1483 1491 1498 1498 1500 1504 1505 1507 1507 1509 1511 1512 1513 1516 1520 1523 1524 1526 1531 1527 1527 1529
1533 1530 1525 1522 1518 1514 1510 1505 1500 1495 1491 1486 1484 1484 1482 1480 1480 1479 1478 1478 1477 1479 1478 1481 1485 1488 1501 1504 1502 1504 1506 1508 1510 1511 1513 1514 1515 1517 1520 1523 1533 1528 1539 1528 1527 1526 1527
1536 1532 1528 1524 1520 1517 1514 1510 1505 1502 1498 1493 1489 1489 1487 1486 1485 1484 1483 1484 1484 1484 1485 1487 1489 1495 1506 1509 1506 1507 1510 1511 1512 1513 1516 1516 1517 1521 1523 1531 1544 1531 1530 1524 1524 1526 1526
1538 1534 1530 1526 1522 1520 1516 1514 1510 1506 1503 1500 1497 1494 1493 1491 1488 1487 1486 1486 1489 1494 1493 1499 1504 1503 1509 1511 1507 1510 1511 1512 1513 1514 1518 1518 1528 1540 1531 1528 1526 1526 1525 1526 1524 1525 1525
1540 1537 1533 1529 1525 1522 1519 1516 1514 1510 1507 1504 1502 1498 1496 1496 1494 1491 1490 1487 1495 1500 1504 1508 1508 1510 1512 1513 1513 1512 1512 1513 1513 1517 1517 1524 1535 1530 1528 1527 1528 1527 1528 1531 1526 1523 1524
1542 1539 1535 1532 1527 1524 1522 1520 1517 1515 1512 1509 1506 1504 1502 1500 1500 1499 1497 1497 1499 1500 1506 1516 1516 1515 1517 1517 1516 1516 1515 1515 1517 1520 1521 1529 1532 1529 1527 1528 1528 1528 1530 1534 1534 1529 1525
1544 1541 1537 1534 1531 1526 1524 1522 1520 1518 1517 1514 1511 1508 1507 1504 1503 1502 1502 1502 1502 1501 1514 1526 1521 1521 1521 1519 1521 1520 1519 1520 1519 1525 1524 1530 1531 1530 1528 1528 1529 1531 1531 1532 1533 1540 1550
1547 1542 1539 1536 1532 1530 1526 1523 1521 1519 1518 1516 1514 1510 1508 1506 1506 1505 1506 1503 1502 1502 1534 1531 1528 1526 1523 1523 1525 1524 1522 1521 1524 1525 1527 1535 1532 1531 1530 1533 1531 1535 1533 1534 1534 1538 1547
1549 1545 1541 1537 1534 1531 1529 1525 1522 1519 1517 1515 1512 1509 1507 1506 1505 1505 1503 1502 1503 1518 1547 1536 1529 1527 1526 1523 1524 1524 1523 1524 1526 1526 1527 1532 1531 1532 1534 1533 1533 1532 1532 1532 1533 1534 1560
1551 1547 1543 1538 1536 1533 1529 1527 1524 1521 1518 1515 1513 1510 1507 1506 1505 1503 1503 1504 1519 1542 1540 1538 1533 1527 1526 1527 1527 1527 1527 1528 1533 1542 1534 1533 1534 1533 1534 1535 1533 1533 1537 1556 1540 1540 1550
1552 1548 1545 1541 1536 1534 1531 1527 1525 1522 1519 1517 1515 1513 1510 1508 1506 1505 1505 1509 1542 1539 1537 1532 1530 1529 1529 1528 1529 1527 1528 1535 1530 1531 1539 1550 1553 1535 1534 1535 1535 1529 1532 1543 1563 1555 1551
1553 1549 1546 1542 1539 1534 1531 1528 1525 1523 1519 1517 1516 1515 1513 1510 1509 1507 1507 1532 1546 1535 1531 1530 1530 1530 1531 1530 1530 1530 1529 1532 1532 1532 1541 1538 1542 1533 1533 1532 1535 1534 1538 1540 1559 1552 1534
1555 1551 1547 1544 1540 1537 1532 1529 1526 1523 1521 1518 1516 1515 1514 1512 1510 1509 1510 1526 1530 1529 1530 1531 1530 1527 1531 1530 1531 1530 1531 1531 1532 1532 1532 1533 1539 1531 1534 1534 1536 1537 1539 1541 1545 1549 1530
1555 1552 1549 1545 1542 1538 1534 1529 1526 1523 1520 1519 1517 1515 1516 1513 1512 1511 1530 1529 1527 1529 1531 1533 1530 1527 1527 1528 1529 1530 1530 1531 1530 1532 1531 1532 1538 1536 1534 1534 1532 1541 1538 1540 1541 1543 1541
1556 1553 1549 1546 1542 1539 1535 1531 1526 1523 1521 1520 1518 1517 1517 1516 1516 1520 1531 1527 1529 1529 1529 1530 1531 1530 1530 1529 1530 1528 1528 1529 1530 1531 1532 1532 1533 1543 1533 1521 1523 1527 1530 1532 1547 1531 1534
1554 1552 1548 1545 1542 1539 1536 1532 1528 1524 1521 1520 1520 1519 1517 1516 1528 1531 1528 1528 1528 1530 1530 1528 1528 1529 1529 1530 1532 1527 1527 1528 1529 1530 1532 1533 1540 1553 1535 1531 1524 1524 1522 1523 1525 1526 1526
1553 1551 1548 1544 1541 1538 1535 1532 1529 1526 1523 1521 1521 1523 1519 1517 1518 1523 1527 1528 1528 1528 1528 1528 1528 1527 1527 1528 1527 1528 1528 1529 1528 1529 1530 1532 1534 1535 1536 1520 1520 1522 1516 1516 1520 1532 1521
1552 1550 1547 1544 1541 1538 1534 1531 1529 1526 1524 1522 1521 1522 1522 1525 1521 1520 1521 1524 1525 1528 1528 1528 1527 1526 1525 1526 1526 1528 1524 1527 1529 1529 1530 1531 1535 1533 1524 1519 1516 1514 1512 1511 1514 1508 1512
1549 1547 1545 1542 1539 1537 1534 1530 1528 1525 1524 1523 1522 1521 1522 1521 1520 1522 1522 1520 1519 1522 1525 1526 1526 1523 1523 1524 1524 1525 1523 1524 1526 1529 1530 1528 1532 1525 1522 1509 1509 1509 1501 1500 1498 1496 1493
1546 1543 1541 1539 1537 1535 1534 1530 1527 1525 1524 1523 1523 1521 1520 1520 1521 1521 1520 1517 1515 1514 1517 1518 1521 1523 1522 1521 1520 1519 1518 1518 1519 1523 1527 1528 1532 1533 1526 1510 1510 1504 1484 1482 1482 1480 1478
1542 1540 1538 1536 1534 1533 1532 1530 1527 1525 1523 1524 1523 1523 1521 1520 1519 1518 1514 1513 1514 1516 1517 1515 1516 1518 1517 1517 1516 1515 1513 1513 1515 1516 1518 1522 1525 1531 1528 1521 1522 1473 1465 1466 1468 1463 1463
1537 1536 1535 1533 1531 1530 1530 1528 1526 1525 1523 1522 1523 1524 1523 1520 1515 1512 1512 1513 1513 1513 1513 1513 1513 1513 1513 1515 1518 1518 1515 1511 1509 1510 1512 1515 1521 1526 1530 1525 1493 1463 1463 1464 1464 1457 1448
1532 1532 1531 1529 1528 1526 1527 1526 1524 1524 1522 1521 1521 1522 1522 1521 1513 1512 1510 1510 1513 1513 1512 1509 1509 1511 1513 1513 1516 1518 1518 1506 1510 1512 1510 1512 1515 1524 1527 1526 1503 1465 1458 1459 1459 1466 1440
1527 1526 1526 1525 1525 1523 1521 1523 1521 1520 1520 1519 1519 1519 1520 1518 1510 1511 1510 1509 1509 1509 1508 1507 1508 1508 1509 1514 1517 1520 1514 1502 1508 1511 1517 1514 1513 1515 1515 1519 1489 1458 1456 1458 1464 1452 1436
1520 1521 1521 1521 1521 1521 1518 1517 1518 1517 1516 1517 1516 1515 1516 1513 1507 1506 1507 1506 1506 1506 1507 1506 1508 1506 1509 1511 1513 1509 1508 1499 1498 1496 1503 1507 1514 1513 1511 1514 1497 1448 1455 1458 1441 1435 1436
1514 1514 1514 1515 1516 1516 1516 1514 1512 1514 1513 1511 1512 1512 1511 1510 1502 1500 1500 1501 1501 1501 1502 1501 1499 1499 1499 1503 1502 1499 1498 1498 1497 1496 1485 1493 1480 1487 1484 1467 1445 1442 1437 1436 1436 1435 1435
Wind_Speed
26 27 29 30 32 32 33 35 33 33 31 31 35 33 41 33 32 29 26 23 21 20 24 21 22 31 27 17 7 12 13 18 12 15 14 16 12 6 6 6 5 3 4 5 6 3 2
25 26 28 30 32 34 32 32 31 32 32 34 29 33 34 34 32 29 24 24 28 28 24 23 16 18 21 13 16 16 16 14 15 14 9 9 3 6 8 7 3 4 7 6 5 3 3
23 25 26 27 29 32 32 30 28 31 32 32 30 32 31 34 34 33 32 28 27 30 31 27 20 20 27 11 14 22 13 12 10 12 11 11 9 4 7 5 4 4 3 1 6 4 2
25 24 25 26 28 30 31 28 26 26 28 27 25 28 30 35 32 32 35 31 26 20 18 21 19 20 13 20 20 24 11 13 12 11 12 12 12 12 5 10 3 2 4 2 1 6 2
25 27 25 25 27 29 31 30 26 23 23 24 24 25 28 30 33 31 27 28 32 23 19 18 19 22 8 16 16 21 15 15 12 12 13 12 8 5 5 4 4 3 1 3 2 8 3
26 24 25 24 25 26 28 29 25 22 22 21 22 23 25 23 22 18 18 22 22 21 18 19 15 15 11 9 14 16 9 10 14 14 9 5 4 3 4 5 3 1 1 3 2 4 3
29 25 24 24 24 24 25 26 25 20 16 17 18 17 12 12 12 13 8 14 12 18 37 23 23 28 15 16 18 11 8 6 4 0 3 4 8 3 4 3 2 1 1 3 2 1 4
27 27 24 22 21 22 22 23 23 19 16 17 17 16 16 12 18 23 28 26 20 19 17 30 27 24 19 12 10 13 9 4 3 4 3 6 4 1 4 4 4 4 3 4 2 3 4
28 26 26 23 20 19 19 20 20 17 13 20 23 23 23 19 16 17 20 21 14 9 8 13 17 17 12 14 10 15 12 8 6 6 6 6 3 1 3 3 5 3 3 3 2 7 4
28 26 25 24 22 19 18 18 17 14 6 7 9 11 14 7 7 9 11 7 4 4 5 10 9 9 11 6 5 13 10 6 6 4 5 6 3 3 2 3 3 3 5 5 5 5 2
27 26 24 23 21 20 18 18 17 15 12 7 14 15 16 11 10 6 6 5 3 1 6 9 6 7 8 5 0 9 9 10 5 4 4 2 2 3 4 3 3 2 4 3 2 3 4
27 27 25 22 21 19 18 16 15 15 13 14 16 14 9 6 8 6 4 3 2 6 4 6 4 4 2 8 4 3 5 7 3 3 6 3 2 2 1 3 1 3 3 3 1 1 3
26 26 27 23 21 19 17 17 14 11 13 14 18 17 12 6 3 4 3 1 5 7 2 4 2 2 4 5 4 5 3 4 3 5 3 3 0 1 1 2 2 1 4 3 2 0 5
26 25 25 26 22 20 18 16 16 16 11 10 14 17 14 10 6 4 3 6 11 4 3 3 3 2 3 4 3 4 2 3 3 2 1 3 5 4 3 2 1 1 2 1 3 2 5
26 24 24 24 26 21 19 18 16 17 11 7 9 14 15 12 7 5 4 7 5 4 4 3 3 1 2 1 1 1 3 2 3 4 3 3 1 2 2 4 2 1 1 3 2 2 3
25 25 23 24 24 24 20 19 18 16 13 4 3 4 15 12 8 6 6 6 4 2 1 1 2 2 2 2 1 2 3 1 3 3 3 2 2 1 1 3 4 2 1 2 2 3 4
24 25 25 24 23 23 22 19 18 18 14 7 4 3 12 7 9 9 4 2 4 2 2 2 4 0 3 3 2 2 1 3 2 2 3 2 1 1 3 5 7 2 2 3 1 3 2
22 23 24 24 24 22 22 21 19 19 15 8 3 3 9 9 6 5 2 2 1 3 3 2 1 3 3 1 2 3 1 2 6 6 3 3 3 4 8 4 7 5 6 5 3 3 3
19 21 22 22 22 22 20 20 19 17 17 10 4 3 5 6 3 2 0 1 1 3 4 3 2 2 3 3 2 0 3 5 8 5 2 3 2 2 4 5 2 4 6 6 3 2 7
19 20 23 26 24 21 20 18 18 16 14 9 3 2 2 3 5 6 3 2 2 2 2 3 2 3 2 3 4 2 3 4 11 6 5 2 3 6 5 3 3 4 5 8 7 3 4
22 23 23 24 28 24 19 18 16 14 11 7 2 1 1 1 2 3 4 5 2 2 3 5 3 5 3 2 4 3 3 3 3 5 5 4 5 4 7 12 11 12 13 12 12 12 8
21 23 23 23 25 26 20 18 16 12 9 5 2 1 1 2 2 1 2 7 7 4 6 4 4 3 4 4 4 4 1 3 5 4 4 3 4 3 6 11 7 9 14 16 17 18 18
20 22 23 21 21 20 22 19 16 11 7 3 3 1 1 2 2 4 4 4 6 9 7 7 5 1 3 6 5 8 10 9 8 7 6 6 3 2 5 6 9 8 9 15 9 8 18
20 20 21 19 18 18 17 18 16 12 7 5 4 4 2 4 3 5 3 6 6 6 4 4 8 5 4 2 11 14 18 19 14 12 12 3 2 2 5 6 2 7 4 7 11 13 18
21 21 20 18 17 17 15 15 15 12 9 6 5 3 3 3 6 7 9 5 4 6 5 9 10 7 6 5 3 5 3 2 3 5 7 8 4 3 2 3 9 7 3 5 6 7 10
23 22 22 19 16 16 14 13 13 13 10 9 6 6 4 3 5 5 2 6 4 3 2 6 7 7 5 3 2 3 4 4 2 1 3 4 5 3 2 2 5 5 2 4 3 5 8
22 23 22 22 19 16 15 14 11 12 12 11 10 9 7 5 8 7 4 3 4 4 2 3 5 4 10 3 3 4 4 3 3 5 5 4 6 12 10 6 9 9 6 6 1 6 10
22 24 23 22 21 19 15 13 14 13 14 13 12 12 12 7 19 21 15 11 7 5 3 3 2 3 3 4 4 4 4 5 2 5 7 8 7 5 7 6 10 11 7 7 6 2 11
24 24 23 22 21 20 19 15 14 15 15 15 17 15 14 16 13 16 16 16 23 19 10 9 4 3 9 2 2 2 3 2 4 4 3 3 8 6 11 8 8 26 13 16 8 8 12
Wind_Direction
20 20 18 19 20 19 18 17 18 20 25 23 26 46 60 64 71 74 76 90 92 104 119 140 148 160 152 121 83 135 136 138 146 133 131 152 161 148 145 137 108 85 128 122 142 162 245
16 20 19 19 18 19 20 19 19 24 25 28 49 57 61 59 64 63 72 91 92 110 113 119 129 127 132 78 127 133 110 125 127 130 143 162 154 98 111 121 87 95 132 142 173 193 222
18 19 21 18 18 20 19 21 21 28 35 42 61 57 57 64 66 68 79 88 104 109 99 105 117 147 95 67 112 116 109 136 126 144 130 134 124 121 106 90 93 95 82 135 207 210 183
20 17 20 20 18 21 22 25 25 38 43 46 52 62 67 72 75 76 80 80 85 93 114 118 111 109 73 92 90 100 111 130 138 144 144 128 127 103 84 121 82 81 46 105 204 157 198
20 21 21 27 22 21 24 28 30 40 47 56 65 63 77 76 72 71 75 85 85 87 80 106 121 80 73 88 66 85 84 106 119 118 126 135 124 83 105 94 40 17 181 180 237 197 151
19 19 18 27 28 21 27 27 32 42 51 62 70 78 86 73 67 57 58 79 85 93 88 89 80 77 60 66 70 83 83 94 105 103 93 78 68 70 37 58 170 85 235 196 224 218 227
22 18 19 19 29 27 25 28 29 36 53 57 70 83 80 63 36 25 85 75 61 49 59 63 78 96 75 76 57 64 94 76 67 80 94 51 69 92 99 60 79 349 47 23 63 62 276
25 20 18 19 25 30 28 29 29 31 49 53 58 67 60 53 48 65 90 83 80 103 61 65 71 69 61 48 48 57 61 68 74 94 95 41 86 108 89 53 56 44 47 353 39 33 326
23 24 20 18 20 30 31 30 32 33 68 86 75 70 75 74 53 54 58 78 92 83 76 48 45 42 37 46 34 14 43 51 64 61 71 100 137 32 26 40 38 50 59 33 331 338 348
22 24 23 21 19 28 36 37 34 35 39 89 63 41 27 7 34 24 42 49 65 96 75 5 7 14 13 6 47 22 38 30 37 78 83 91 38 23 20 59 60 76 19 24 358 29 285
20 21 25 23 21 16 29 35 39 36 29 329 312 314 321 334 3 17 22 21 49 61 63 312 340 343 8 68 76 18 33 69 54 47 72 238 113 25 21 51 30 111 343 274 262 284 33
21 19 21 24 20 19 15 26 29 32 25 13 10 358 328 311 340 1 3 21 66 42 31 326 310 301 11 53 35 4 40 60 59 53 55 94 64 51 46 356 54 318 336 298 168 309 344
17 18 17 23 21 16 14 8 15 13 10 19 27 20 26 11 356 22 23 19 48 63 284 315 303 10 63 33 18 18 32 31 68 65 15 36 122 119 83 15 246 190 50 356 329 308 228
11 17 15 14 24 17 15 12 359 1 6 9 27 36 41 36 40 38 19 51 66 245 189 267 263 290 75 20 359 349 40 33 353 54 95 121 338 182 176 213 350 3 329 196 253 305 271
6 11 15 15 11 19 15 15 12 1 6 34 37 34 30 30 21 12 84 50 158 205 217 201 320 332 36 68 99 10 63 92 56 42 98 43 311 89 174 22 54 355 183 118 104 226 275
8 4 10 10 13 10 13 10 11 8 357 23 43 27 16 19 28 17 70 118 114 122 35 18 193 152 122 206 186 183 156 297 120 68 43 67 73 159 108 85 60 51 79 193 137 303 280
4 4 1 4 6 8 6 7 5 7 359 358 30 38 12 16 10 45 86 99 124 150 5 332 342 160 97 159 82 33 144 209 132 124 42 123 93 252 100 205 186 151 197 220 336 179 222
356 358 356 357 357 1 2 1 359 5 8 354 2 52 4 3 48 53 62 12 53 143 155 283 303 331 19 358 212 219 204 112 153 170 178 166 191 231 228 246 174 177 191 175 141 200 233
346 346 348 349 350 349 356 355 355 354 9 7 360 349 19 25 91 36 249 65 358 151 206 192 216 90 27 321 341 188 189 157 162 182 201 183 252 349 360 350 291 216 206 194 166 120 220
334 337 340 340 344 344 343 348 351 346 355 1 356 359 34 77 102 132 150 208 188 224 221 204 227 119 197 231 217 248 213 212 193 200 167 130 240 202 204 228 128 226 219 210 178 181 209
331 331 333 335 336 343 338 338 342 342 337 352 21 299 296 281 335 122 136 159 168 222 235 219 235 226 196 201 182 220 200 138 215 202 188 167 231 204 246 258 259 253 243 234 218 215 202
322 323 327 328 332 336 342 337 340 342 328 334 329 108 213 265 195 170 189 200 187 185 161 237 213 297 198 200 161 217 101 221 191 196 188 208 273 287 271 259 259 258 248 239 237 238 246
314 320 319 320 325 334 341 341 337 335 332 325 334 311 258 242 236 125 222 224 202 152 205 175 186 162 252 242 235 252 242 232 200 167 208 168 200 355 268 309 324 293 229 222 225 219 223
302 312 314 314 319 327 333 339 337 329 318 303 314 292 259 274 177 213 219 197 191 210 186 173 186 166 205 265 298 277 258 253 251 251 212 158 160 172 277 340 297 244 247 208 211 230 221
291 301 304 305 312 319 323 331 332 327 305 292 295 275 290 270 241 280 245 211 230 231 224 229 228 223 223 323 1 339 346 313 250 215 208 178 133 281 242 255 290 293 213 184 186 277 215
283 291 296 297 303 311 317 317 324 323 304 282 269 266 270 310 266 285 277 221 205 214 273 223 188 205 215 159 146 209 241 238 228 204 63 135 136 165 336 223 253 245 215 162 103 287 211
279 283 287 292 293 298 303 303 304 308 300 276 264 259 254 257 271 258 234 217 200 221 222 167 190 175 179 159 172 190 232 191 223 191 170 174 209 223 233 261 281 243 185 140 102 247 185
275 283 282 283 286 290 293 292 287 295 296 281 267 254 248 249 267 266 255 243 235 226 176 153 83 209 139 171 175 225 195 221 200 187 178 171 163 194 198 225 268 177 118 173 221 203 199
277 281 280 280 279 284 290 285 283 279 289 285 271 260 255 248 260 267 268 259 248 245 247 216 248 182 202 141 226 188 228 201 179 249 167 221 194 184 191 215 242 188 224 225 264 258 230